Saipan, MP

9:36 PM ChST on March 28, 2017 (GMT +1000)
Saipan International

Weather History for PGSN - January, 2013

Change the Weather History Date:

Thursday, January 3, 2013

  Actual Average Record
Temperature  
Mean Temperature 77 °F -  
Max Temperature 81 °F 82 °F 87 °F (2015)
Min Temperature 73 °F 74 °F 71 °F (2016)
Cooling Degree Days 12    
Growing Degree Days 27 (Base 50)    
Moisture  
Dew Point 72 °F    
Average Humidity 83    
Maximum Humidity 100    
Minimum Humidity 60    
Precipitation  
Precipitation 0.14 in - - ()
Sea Level Pressure  
Sea Level Pressure 29.92 in    
Wind  
Wind Speed 17 mph (ENE)    
Max Wind Speed 24 mph    
Max Gust Speed 31 mph    
Visibility 10 miles    
Events Rain    
Averages and records for this station are not official NWS values.
T = Trace of Precipitation, MM = Missing Value Source: NWS Daily Summary

Daily Weather History Graph

Daily Weather History Graph

Search for Another Location

Airport or City:

Trip Planner

Search our weather history database for the weather conditions in past years. The results will help you decide how hot, cold, wet, or windy it might be!

Date:

Astronomy

Jan. 03, 2013 Rise Set
Actual Time 6:43 AM ChST 5:59 PM ChST
Civil Twilight 6:20 AM ChST 6:22 PM ChST
Nautical Twilight 5:53 AM ChST 6:49 PM ChST
Astronomical Twilight 5:27 AM ChST 7:15 PM ChST
Moon 10:54 PM ChST (1/3) 10:29 AM ChST (1/3)
Length of Visible Light 12h 01m
Length of Day
11h 15m
Waning Gibbous, 72% of the Moon is Illuminated
Jan 3
Waning Gibbous
Jan 5
Last Quarter
Jan 12
New
Jan 19
First Quarter
Jan 27
Full

Hourly Weather History & Observations

Time (ChST) Temp. Heat Index Dew Point Humidity Pressure Visibility Wind Dir Wind Speed Gust Speed Precip Events Conditions
12:54 AM 75.0 °F - 73.0 °F 94% 29.99 in 10.0 mi East 13.8 mph - 0.00 in   Overcast
1:54 AM 73.0 °F - 73.0 °F 100% 29.98 in 8.0 mi East 10.4 mph - 0.07 in Rain Light Rain
2:54 AM 75.9 °F - 75.0 °F 97% 29.96 in 9.0 mi East 10.4 mph - 0.01 in Rain Light Rain
3:54 AM 75.0 °F - 73.9 °F 96% 29.94 in 10.0 mi East 16.1 mph - 0.03 in   Mostly Cloudy
4:35 AM 75.2 °F - 73.4 °F 94% 29.87 in 10.0 mi East 16.1 mph 28.8 mph N/A   Mostly Cloudy
4:54 AM 75.9 °F - 73.9 °F 94% 29.94 in 10.0 mi East 19.6 mph - N/A   Overcast
5:30 AM 75.2 °F - 71.6 °F 89% 29.88 in 10.0 mi East 24.2 mph 31.1 mph N/A   Mostly Cloudy
5:54 AM 75.9 °F - 72.0 °F 87% 29.95 in 10.0 mi East 20.7 mph 27.6 mph N/A   Overcast
6:54 AM 75.9 °F - 72.0 °F 87% 29.96 in 10.0 mi East 20.7 mph 29.9 mph N/A   Overcast
7:54 AM 77.0 °F - 71.1 °F 82% 29.99 in 10.0 mi ENE 23.0 mph 31.1 mph N/A   Scattered Clouds
8:54 AM 79.0 °F - 73.0 °F 82% 30.00 in 10.0 mi ENE 18.4 mph 27.6 mph N/A   Scattered Clouds
9:54 AM 75.9 °F - 73.9 °F 94% 30.00 in 10.0 mi ENE 17.3 mph - 0.01 in   Mostly Cloudy
10:54 AM 77.0 °F - 75.0 °F 94% 29.99 in 10.0 mi East 17.3 mph 25.3 mph 0.00 in   Mostly Cloudy
11:54 AM 80.1 °F 83.2 °F 70.0 °F 71% 29.96 in 10.0 mi ENE 23.0 mph 31.1 mph N/A   Partly Cloudy
12:54 PM 80.1 °F 83.2 °F 70.0 °F 71% 29.92 in 10.0 mi ENE 16.1 mph - N/A   Scattered Clouds
1:54 PM 80.1 °F 82.9 °F 69.1 °F 69% 29.90 in 10.0 mi ENE 23.0 mph 28.8 mph N/A   Partly Cloudy
2:54 PM 81.0 °F 83.0 °F 66.0 °F 60% 29.88 in 10.0 mi ENE 21.9 mph 26.5 mph N/A   Partly Cloudy
3:54 PM 80.1 °F 82.1 °F 66.0 °F 62% 29.89 in 10.0 mi ENE 18.4 mph 27.6 mph N/A   Mostly Cloudy
4:54 PM 79.0 °F - 68.0 °F 69% 29.89 in 10.0 mi ENE 19.6 mph - N/A   Partly Cloudy
5:54 PM 78.1 °F - 69.1 °F 74% 29.89 in 10.0 mi ENE 18.4 mph 23.0 mph N/A   Mostly Cloudy
6:54 PM 78.1 °F - 72.0 °F 81% 29.91 in 4.0 mi East 16.1 mph 25.3 mph 0.00 in Rain Light Rain
7:54 PM 78.1 °F - 73.0 °F 84% 29.91 in 10.0 mi ENE 21.9 mph 26.5 mph 0.00 in   Overcast
8:32 PM 78.8 °F - 73.4 °F 83% 29.86 in 10.0 mi NE 16.1 mph 21.9 mph N/A   Overcast
8:45 PM 78.8 °F - 73.4 °F 83% 29.86 in 10.0 mi ENE 20.7 mph 24.2 mph N/A   Overcast
8:54 PM 75.9 °F - 71.1 °F 85% 29.93 in 10.0 mi ENE 15.0 mph 25.3 mph N/A   Overcast
9:54 PM 78.1 °F - 72.0 °F 81% 29.93 in 10.0 mi ENE 18.4 mph - N/A   Overcast
10:37 PM - - - N/A% 29.87 in 10.0 mi ESE 11.5 mph - 0.02 in Rain Light Rain
10:54 PM - - - N/A% 29.87 in 10.0 mi East 10.4 mph - 0.02 in   Overcast
11:13 PM 78.8 °F - 73.4 °F 83% 29.86 in 10.0 mi ENE 12.7 mph - N/A   Overcast
11:54 PM 79.0 °F - 73.0 °F 82% 29.92 in 10.0 mi NE 10.4 mph - N/A   Mostly Cloudy